Location: Poughquag
(41.6090°N, 73.6820°W)
Time: 07:38:36
(UTC-04:00)

A-11 Canister half - All Passes

Search period start: 29 May 2020 00:00
Search period end: 08 June 2020 00:00
Orbit: 1526 x 1683 km, 47.3° (Epoch: 29 May)

Date Brightness Start Highest point End Pass type
(mag) Time Alt. Az. Time Alt. Az. Time Alt. Az.
29 May - 07:09:16 10° SSW 07:17:37 39° SE 07:26:04 10° ENE daylight
29 May - 09:12:38 10° WSW 09:21:59 86° NNW 09:31:35 10° ENE daylight
29 May - 11:18:25 10° W 11:27:45 62° N 11:37:22 10° E daylight
29 May - 13:23:58 10° WNW 13:33:35 83° NNE 13:43:30 10° ESE daylight
29 May - 15:29:18 10° WNW 15:38:13 44° SW 15:47:25 10° SSE daylight
30 May - 06:47:49 10° SSW 06:56:02 37° SE 07:04:20 10° ENE daylight
30 May - 08:51:01 10° WSW 09:00:20 88° NNW 09:09:55 10° ENE daylight
30 May - 10:56:44 10° W 11:06:03 62° N 11:15:38 10° E daylight
30 May - 13:02:20 10° WNW 13:11:54 81° NNE 13:21:48 10° ESE daylight
30 May - 15:07:37 10° WNW 15:16:37 46° SW 15:25:53 10° SSE daylight
30 May - 17:18:01 10° WSW 17:19:53 11° WSW 17:21:45 10° SW daylight
31 May - 06:26:23 10° SSW 06:34:29 35° SE 06:42:37 10° ENE daylight
31 May - 08:29:22 10° WSW 08:38:42 89° SSE 08:48:15 10° ENE daylight
31 May - 10:35:04 10° W 10:44:21 63° N 10:53:55 10° ENE daylight
31 May - 12:40:42 10° WNW 12:50:14 79° NNE 13:00:05 10° ESE daylight
31 May - 14:45:57 10° WNW 14:55:00 48° SW 15:04:20 10° SSE daylight
31 May - 16:55:18 10° WSW 16:58:20 12° WSW 17:01:22 10° SW daylight
01 Jun - 06:04:57 10° SSW 06:12:54 33° SE 06:20:54 10° ENE daylight
01 Jun - 08:07:45 10° WSW 08:17:04 87° SSE 08:26:35 10° ENE daylight
01 Jun - 10:13:24 10° W 10:22:40 63° N 10:32:12 10° ENE daylight
01 Jun - 12:19:03 10° WNW 12:28:34 78° NNE 12:38:24 10° ESE daylight
01 Jun - 14:24:17 10° WNW 14:33:24 50° SW 14:42:47 10° SSE daylight
01 Jun - 16:32:59 10° W 16:36:46 13° WSW 16:40:37 10° SW daylight
02 Jun - 05:43:32 10° S 05:51:20 31° SE 05:59:10 10° ENE daylight
02 Jun - 07:46:07 10° WSW 07:55:27 85° SSE 08:04:55 10° ENE daylight
02 Jun - 09:51:43 10° W 10:00:59 63° N 10:10:30 10° ENE daylight
02 Jun - 11:57:25 10° WNW 12:06:54 76° NNE 12:16:41 10° ESE daylight
02 Jun - 14:02:38 10° WNW 14:11:46 52° SW 14:21:13 10° SSE daylight
02 Jun - 16:10:48 10° W 16:15:13 14° WSW 16:19:41 10° SSW daylight
03 Jun - 05:22:08 10° S 05:29:46 30° SE 05:37:25 10° ENE daylight
03 Jun - 07:24:31 10° SW 07:33:49 82° SSE 07:43:15 10° ENE daylight
03 Jun - 09:30:03 10° W 09:39:18 63° N 09:48:47 10° ENE daylight
03 Jun - 11:35:47 10° WNW 11:45:14 74° NNE 11:54:58 10° ESE daylight
03 Jun - 13:40:58 10° WNW 13:50:09 55° SW 13:59:38 10° SE daylight
03 Jun - 15:48:45 10° W 15:53:39 15° WSW 15:58:38 10° SSW daylight
04 Jun - 05:00:45 10° S 05:08:13 28° SE 05:15:40 10° ENE daylight
04 Jun - 07:02:54 10° SW 07:12:11 79° SSE 07:21:36 10° ENE daylight
04 Jun - 09:08:22 10° W 09:17:37 64° N 09:27:05 10° ENE daylight
04 Jun - 11:14:07 10° WNW 11:23:33 73° NNE 11:33:16 10° ESE daylight
04 Jun - 13:19:19 10° WNW 13:28:32 57° SW 13:38:03 10° SE daylight
04 Jun - 15:26:45 10° W 15:32:05 16° SW 15:37:32 10° SSW daylight
05 Jun - 04:39:24 10° S 04:46:39 26° SE 04:53:55 10° ENE visible
05 Jun - 06:41:17 10° SW 06:50:34 77° SSE 06:59:56 10° ENE daylight
05 Jun - 08:46:41 10° W 08:55:56 65° N 09:05:23 10° ENE daylight
05 Jun - 10:52:29 10° WNW 11:01:53 72° NNE 11:11:33 10° E daylight
05 Jun - 12:57:40 10° WNW 13:06:55 60° SW 13:16:27 10° SE daylight
05 Jun - 15:04:48 10° W 15:10:32 18° SW 15:16:22 10° SSW daylight
06 Jun - 04:18:03 10° S 04:25:07 25° SE 04:32:08 10° E visible
06 Jun - 06:19:41 10° SW 06:28:57 74° SSE 06:38:17 10° ENE daylight
06 Jun - 08:25:01 10° W 08:34:16 65° N 08:43:41 10° ENE daylight
06 Jun - 10:30:50 10° WNW 10:40:12 70° NNE 10:49:50 10° E daylight
06 Jun - 12:36:02 10° WNW 12:45:18 62° SW 12:54:52 10° SE daylight
06 Jun - 14:42:55 10° W 14:48:58 19° SW 14:55:09 10° SSW daylight
07 Jun - 03:56:43 10° S 04:03:33 23° SE 04:10:22 10° E visible
07 Jun - 05:58:06 10° SW 06:07:20 72° SSE 06:16:37 10° ENE daylight
07 Jun - 08:03:20 10° W 08:12:35 66° N 08:22:00 10° ENE daylight
07 Jun - 10:09:11 10° WNW 10:18:32 69° NNE 10:28:08 10° E daylight
07 Jun - 12:14:23 10° WNW 12:23:41 64° SW 12:33:16 10° SE daylight
07 Jun - 14:21:03 10° W 14:27:24 20° SW 14:33:53 10° S daylight
